Weather History for Brainerd, MN

Change the Weather History Date:

Sunday, November 4, 2012

  Actual Average Record
Temperature  
Mean Temperature 37 °F -  
Max Temperature 42 °F 41 °F 73 °F (1975)
Min Temperature 32 °F 23 °F -7 °F (1991)
Degree Days  
Heating Degree Days 28    
Moisture  
Dew Point 25 °F    
Average Humidity 64    
Maximum Humidity 79    
Minimum Humidity 49    
Precipitation  
Precipitation 0.00 in - - ()
Sea Level Pressure  
Sea Level Pressure 30.24 in    
Wind  
Wind Speed 4 mph (ENE)    
Max Wind Speed 9 mph    
Max Gust Speed -    
Visibility 10 miles    
Events      
Averages and records for this station are not official NWS values.
T = Trace of Precipitation, MM = Missing Value Source: NWS Daily Summary

Daily Weather History Graph

Daily Weather History Graph

Search for Another Location

Airport:

Trip Planner

Search our weather history database for the weather conditions in past years. The results will help you decide how hot, cold, wet, or windy it might be!

Date:

Astronomy

Nov. 04, 2012 Rise Set
Actual Time 7:03 AM CST 4:56 PM CST
Civil Twilight 6:31 AM CST 5:28 PM CST
Nautical Twilight 5:55 AM CST 6:04 PM CST
Astronomical Twilight 5:20 AM CST 6:39 PM CST
Moon 9:32 PM CST (11/4) 11:51 AM CST (11/4)
Length of Visible Light 10h 57m
Length of Day
9h 53m
Waning Gibbous, 72% of the Moon is Illuminated
Nov 4
Waning Gibbous
Nov 6
Last Quarter
Nov 13
New
Nov 20
First Quarter
Nov 28
Full

Hourly Weather History & Observations

Time (CST) Temp. Windchill Dew Point Humidity Pressure Visibility Wind Dir Wind Speed Gust Speed Precip Events Conditions
12:53 AM 34.0 °F 31.0 °F 25.0 °F 70% 30.27 in 10.0 mi ENE 3.5 mph - N/A   Overcast
1:53 AM 34.0 °F 29.8 °F 26.1 °F 73% 30.27 in 10.0 mi ENE 4.6 mph - N/A   Overcast
1:53 AM 34.0 °F 31.0 °F 27.0 °F 75% 30.27 in 10.0 mi NNE 3.5 mph - N/A   Overcast
2:53 AM 34.0 °F 31.0 °F 27.0 °F 75% 30.26 in 10.0 mi ENE 3.5 mph - N/A   Overcast
3:53 AM 33.1 °F - 26.1 °F 75% 30.27 in 10.0 mi Calm Calm - N/A   Overcast
4:53 AM 33.1 °F 28.7 °F 26.1 °F 75% 30.27 in 10.0 mi NE 4.6 mph - N/A   Overcast
5:53 AM 33.1 °F - 26.1 °F 75% 30.26 in 10.0 mi Calm Calm - N/A   Overcast
6:53 AM 32.0 °F 27.5 °F 26.1 °F 79% 30.27 in 10.0 mi ENE 4.6 mph - N/A   Overcast
7:53 AM 33.1 °F 30.0 °F 26.1 °F 75% 30.27 in 10.0 mi East 3.5 mph - N/A   Overcast
8:53 AM 34.0 °F 29.8 °F 26.1 °F 73% 30.26 in 10.0 mi Variable 4.6 mph - N/A   Overcast
9:53 AM 36.0 °F 30.3 °F 26.1 °F 67% 30.25 in 10.0 mi ESE 6.9 mph - N/A   Overcast
10:53 AM 37.0 °F 32.4 °F 25.0 °F 62% 30.25 in 10.0 mi ESE 5.8 mph - N/A   Overcast
11:53 AM 39.0 °F 34.8 °F 25.0 °F 57% 30.24 in 10.0 mi ENE 5.8 mph - N/A   Overcast
12:53 PM 39.9 °F 35.1 °F 25.0 °F 55% 30.21 in 10.0 mi East 6.9 mph - N/A   Overcast
1:53 PM 41.0 °F 37.1 °F 24.1 °F 51% 30.21 in 10.0 mi Variable 5.8 mph - N/A   Overcast
2:53 PM 42.1 °F 40.2 °F 24.1 °F 49% 30.20 in 10.0 mi Variable 3.5 mph - N/A   Overcast
3:53 PM 42.1 °F 40.2 °F 24.1 °F 49% 30.20 in 10.0 mi ENE 3.5 mph - N/A   Overcast
4:53 PM 41.0 °F 38.0 °F 25.0 °F 53% 30.21 in 10.0 mi NE 4.6 mph - N/A   Overcast
5:53 PM 39.9 °F 36.7 °F 25.0 °F 55% 30.21 in 10.0 mi NE 4.6 mph - N/A   Overcast
6:53 PM 39.9 °F 35.8 °F 25.0 °F 55% 30.22 in 10.0 mi ENE 5.8 mph - N/A   Overcast
7:53 PM 39.0 °F 32.8 °F 24.1 °F 55% 30.22 in 10.0 mi ENE 9.2 mph - N/A   Overcast
8:53 PM 39.0 °F 36.8 °F 24.1 °F 55% 30.23 in 10.0 mi East 3.5 mph - N/A   Overcast
9:53 PM 37.0 °F 32.4 °F 24.1 °F 59% 30.24 in 10.0 mi ENE 5.8 mph - N/A   Overcast
10:53 PM 36.0 °F 32.1 °F 25.0 °F 64% 30.24 in 10.0 mi East 4.6 mph - N/A   Overcast